Tracking 27107 objects as of 22-Mar-2023
HD Live streaming from Space Station
objects crossing your sky now

DMSP 5D-2 F11 DEB

Track DMSP 5D-2 F11 DEB now!
10-day predictions


NORAD ID: 28327
Int'l Code: 1991-082AQ
Perigee: 776.7 km
Apogee: 817.8 km
Inclination: 98.7 °
Period: 100.7 minutes
Semi major axis: 7168 km
RCS: 0.0132 m2 (small)
Launch date: November 28, 1991
Source: United States (US)
Launch site: AIR FORCE WESTERN TEST RANGE (AFWTR)

Note: This is SATELLITE DEBRIS
Your satellite tracking list
Your tracking list is empty




NASA's NSSDC Master Catalog

Two Line Element Set (TLE):
1 28327U 91082AQ  23079.40035028  .00005018  00000-0  19342-2 0  9990
2 28327  98.7488 136.8046 0028646 250.2828 120.8018 14.30489405506086
Source of the keplerian elements: AFSPC